Kailua Kona, HI

2:29 PM HST on February 05, 2016 (GMT -1000)
Kona International At Keahole

Weather History for PHKO - March, 2012

Change the Weather History Date:

Wednesday, March 14, 2012

  Actual Average Record
Temperature  
Mean Temperature 74 °F -  
Max Temperature 81 °F 79 °F 88 °F (1986)
Min Temperature 66 °F 67 °F 63 °F (1993)
Cooling Degree Days 8    
Growing Degree Days 24 (Base 50)    
Moisture  
Dew Point 58 °F    
Average Humidity 58    
Maximum Humidity 70    
Minimum Humidity 49    
Precipitation  
Precipitation 0.00 in - - ()
Sea Level Pressure  
Sea Level Pressure 30.02 in    
Wind  
Wind Speed 10 mph (SE)    
Max Wind Speed 20 mph    
Max Gust Speed 23 mph    
Visibility 10 miles    
Events      
Averages and records for this station are not official NWS values.
T = Trace of Precipitation, MM = Missing Value Source: NWS Daily Summary

Daily Weather History Graph

Daily Weather History Graph

Search for Another Location

Airport or City:

Trip Planner

Search our weather history database for the weather conditions in past years. The results will help you decide how hot, cold, wet, or windy it might be!

Date:

Astronomy

Mar. 14, 2012 Rise Set
Actual Time 6:32 AM HST 6:33 PM HST
Civil Twilight 6:10 AM HST 6:55 PM HST
Nautical Twilight 5:45 AM HST 7:21 PM HST
Astronomical Twilight 5:19 AM HST 7:46 PM HST
Moon 12:28 AM HST (3/14) 11:46 AM HST (3/14)
Length of Visible Light 12h 44m
Length of Day
12h 00m
Waning Gibbous, 52% of the Moon is Illuminated
Mar 14
Waning Gibbous
Mar 14
Last Quarter
Mar 22
New
Mar 30
First Quarter
Apr 6
Full

Hourly Weather History & Observations

Time (HST) Temp. Heat Index Dew Point Humidity Pressure Visibility Wind Dir Wind Speed Gust Speed Precip Events Conditions
12:53 AM 72.0 °F - 52.0 °F 49% 30.01 in 10.0 mi NNE 19.6 mph - N/A   Clear
1:53 AM 72.0 °F - 52.0 °F 49% 30.00 in 10.0 mi NE 12.7 mph - N/A   Clear
2:53 AM 71.1 °F - 51.1 °F 49% 29.99 in 10.0 mi ENE 4.6 mph - N/A   Clear
3:53 AM 69.1 °F - 55.9 °F 63% 29.98 in 10.0 mi South 4.6 mph - N/A   Clear
4:53 AM 66.9 °F - 55.0 °F 66% 29.98 in 10.0 mi East 4.6 mph - N/A   Clear
5:53 AM 69.1 °F - 55.9 °F 63% 29.99 in 10.0 mi North 4.6 mph - N/A   Partly Cloudy
6:53 AM 66.0 °F - 55.9 °F 70% 30.00 in 10.0 mi East 3.5 mph - N/A   Clear
7:50 AM 71.6 °F - 57.2 °F 60% 30.02 in 10.0 mi East 3.5 mph - N/A   Mostly Cloudy
7:53 AM 72.0 °F - 57.9 °F 61% 30.02 in 10.0 mi SE 3.5 mph - N/A   Mostly Cloudy
8:06 AM 73.4 °F - 60.8 °F 65% 30.02 in 10.0 mi SSE 9.2 mph - N/A   Scattered Clouds
8:53 AM 75.9 °F - 61.0 °F 60% 30.04 in 10.0 mi SSE 11.5 mph 17.3 mph N/A   Clear
9:53 AM 77.0 °F - 62.1 °F 60% 30.05 in 10.0 mi South 11.5 mph - N/A   Clear
10:53 AM 79.0 °F - 61.0 °F 54% 30.04 in 10.0 mi South 13.8 mph - N/A   Clear
11:53 AM 79.0 °F - 60.1 °F 52% 30.03 in 10.0 mi SSW 12.7 mph - N/A   Mostly Cloudy
12:53 PM 81.0 °F 81.7 °F 61.0 °F 50% 30.00 in 10.0 mi SSW 16.1 mph 23.0 mph N/A   Partly Cloudy
1:53 PM 79.0 °F - 62.1 °F 56% 29.99 in 10.0 mi SSW 13.8 mph - N/A   Mostly Cloudy
2:53 PM 80.1 °F 81.1 °F 61.0 °F 52% 29.98 in 10.0 mi SSW 13.8 mph - N/A   Overcast
3:53 PM 79.0 °F - 61.0 °F 54% 29.98 in 10.0 mi SW 9.2 mph - N/A   Overcast
4:53 PM 77.0 °F - 60.1 °F 56% 29.99 in 10.0 mi South 9.2 mph - N/A   Mostly Cloudy
5:53 PM 75.9 °F - 61.0 °F 60% 30.01 in 10.0 mi South 6.9 mph - N/A   Overcast
6:53 PM 75.0 °F - 62.1 °F 64% 30.03 in 10.0 mi SW 4.6 mph - N/A   Overcast
7:53 PM 75.0 °F - 60.1 °F 60% 30.05 in 10.0 mi ESE 5.8 mph - N/A   Partly Cloudy
8:53 PM 73.9 °F - 57.9 °F 57% 30.06 in 10.0 mi ESE 6.9 mph - N/A   Clear
9:53 PM 73.0 °F - 57.9 °F 59% 30.07 in 10.0 mi East 4.6 mph - N/A   Clear
10:53 PM 71.1 °F - 57.9 °F 63% 30.07 in 10.0 mi ESE 5.8 mph - N/A   Clear
11:53 PM 71.1 °F - 55.9 °F 59% 30.07 in 10.0 mi NE 4.6 mph - N/A   Clear